Year,Month,Day,Hour,Minute,Value (Times are PST for windspeed in km/hr)
2021,11,10,00,00,0.60
2021,11,10,00,01,0.80
2021,11,10,00,02,4.80
2021,11,10,00,03,0.90
2021,11,10,00,04,1.20
2021,11,10,00,05,1.00
2021,11,10,00,06,1.50
2021,11,10,00,07,0.40
2021,11,10,00,08,0.70
2021,11,10,00,09,0.20
2021,11,10,00,10,3.30
2021,11,10,00,11,1.40
2021,11,10,00,12,2.00
2021,11,10,00,13,3.90
2021,11,10,00,14,2.00
2021,11,10,00,15,1.20
2021,11,10,00,16,4.10
2021,11,10,00,17,1.40
2021,11,10,00,18,1.90
2021,11,10,00,19,1.20
2021,11,10,00,20,3.10
2021,11,10,00,21,2.60
2021,11,10,00,22,0.60
2021,11,10,00,23,0.80
2021,11,10,00,24,3.40
2021,11,10,00,25,4.00
2021,11,10,00,26,2.80
2021,11,10,00,27,4.30
2021,11,10,00,28,4.70
2021,11,10,00,29,3.40
2021,11,10,00,30,1.80
2021,11,10,00,31,0.30
2021,11,10,00,32,0.10
2021,11,10,00,33,0.20
2021,11,10,00,34,0.50
2021,11,10,00,35,1.20
2021,11,10,00,36,0.40
2021,11,10,00,37,0.20
2021,11,10,00,38,0.50
2021,11,10,00,39,0.20
2021,11,10,00,40,0.00
2021,11,10,00,41,1.50
2021,11,10,00,42,0.50
2021,11,10,00,43,0.10
2021,11,10,00,44,0.40
2021,11,10,00,45,1.50
2021,11,10,00,46,3.00
2021,11,10,00,47,3.00
2021,11,10,00,48,3.00
2021,11,10,00,49,3.20
2021,11,10,00,50,3.60
2021,11,10,00,51,0.50
2021,11,10,00,52,0.30
2021,11,10,00,53,0.00
2021,11,10,00,54,0.30
2021,11,10,00,55,0.30
2021,11,10,00,56,0.90
2021,11,10,00,57,0.00
2021,11,10,00,58,0.20
2021,11,10,00,59,3.00
2021,11,10,01,00,1.80
2021,11,10,01,01,2.00
2021,11,10,01,02,0.50
2021,11,10,01,03,0.90
2021,11,10,01,04,1.40
2021,11,10,01,05,1.80
2021,11,10,01,06,0.50
2021,11,10,01,07,0.30
2021,11,10,01,08,2.00
2021,11,10,01,09,0.90
2021,11,10,01,10,0.20
2021,11,10,01,11,0.10
2021,11,10,01,12,0.00
2021,11,10,01,13,0.10
2021,11,10,01,14,0.10
2021,11,10,01,15,1.80
2021,11,10,01,16,2.20
2021,11,10,01,17,2.30
2021,11,10,01,18,1.20
2021,11,10,01,19,0.70
2021,11,10,01,20,2.90
2021,11,10,01,21,1.50
2021,11,10,01,22,0.20
2021,11,10,01,23,0.60
2021,11,10,01,24,0.60
2021,11,10,01,25,0.20
2021,11,10,01,26,0.00
2021,11,10,01,27,0.00
2021,11,10,01,28,0.40
2021,11,10,01,29,0.50
2021,11,10,01,30,0.00
2021,11,10,01,31,1.40
2021,11,10,01,32,1.70
2021,11,10,01,33,0.80
2021,11,10,01,34,1.50
2021,11,10,01,35,0.30
2021,11,10,01,36,0.00
2021,11,10,01,37,0.00
2021,11,10,01,38,0.00
2021,11,10,01,39,0.00
2021,11,10,01,40,0.00
2021,11,10,01,41,0.10
2021,11,10,01,42,0.00
2021,11,10,01,43,0.00
2021,11,10,01,44,0.00
2021,11,10,01,45,0.00
2021,11,10,01,46,0.00
2021,11,10,01,47,0.00
2021,11,10,01,48,0.00
2021,11,10,01,49,0.00
2021,11,10,01,50,0.00
2021,11,10,01,51,0.00
2021,11,10,01,52,0.00
2021,11,10,01,53,0.00
2021,11,10,01,54,0.00
2021,11,10,01,55,0.00
2021,11,10,01,56,0.00
2021,11,10,01,57,0.00
2021,11,10,01,58,0.00
2021,11,10,01,59,0.00
2021,11,10,02,00,0.00
2021,11,10,02,01,0.00
2021,11,10,02,02,0.00
2021,11,10,02,03,0.00
2021,11,10,02,04,0.00
2021,11,10,02,05,0.00
2021,11,10,02,06,0.00
2021,11,10,02,07,0.00
2021,11,10,02,08,0.00
2021,11,10,02,09,0.00
2021,11,10,02,10,0.00
2021,11,10,02,11,0.00
2021,11,10,02,12,0.00
2021,11,10,02,13,0.00
2021,11,10,02,14,0.00
2021,11,10,02,15,0.00
2021,11,10,02,16,0.00
2021,11,10,02,17,0.00
2021,11,10,02,18,0.00
2021,11,10,02,19,0.00
2021,11,10,02,20,0.00
2021,11,10,02,21,0.00
2021,11,10,02,22,0.00
2021,11,10,02,23,0.00
2021,11,10,02,24,0.00
2021,11,10,02,25,0.00
2021,11,10,02,26,0.00
2021,11,10,02,27,0.00
2021,11,10,02,28,0.00
2021,11,10,02,29,0.00
2021,11,10,02,30,0.00
2021,11,10,02,31,0.00
2021,11,10,02,32,0.00
2021,11,10,02,33,0.00
2021,11,10,02,34,0.00
2021,11,10,02,35,0.00
2021,11,10,02,36,0.00
2021,11,10,02,37,0.00
2021,11,10,02,38,0.00
2021,11,10,02,39,0.00
2021,11,10,02,40,0.00
2021,11,10,02,41,0.00
2021,11,10,02,42,0.00
2021,11,10,02,43,0.00
2021,11,10,02,44,0.00
2021,11,10,02,45,0.00
2021,11,10,02,46,0.00
2021,11,10,02,47,0.00
2021,11,10,02,48,0.00
2021,11,10,02,49,0.00
2021,11,10,02,50,0.00
2021,11,10,02,51,0.00
2021,11,10,02,52,0.00
2021,11,10,02,53,0.00
2021,11,10,02,54,0.00
2021,11,10,02,55,0.00
2021,11,10,02,56,0.00
2021,11,10,02,57,0.00
2021,11,10,02,58,0.00
2021,11,10,02,59,0.00
2021,11,10,03,00,1.00
2021,11,10,03,01,0.40
2021,11,10,03,02,1.50
2021,11,10,03,03,0.40
2021,11,10,03,04,0.00
2021,11,10,03,05,0.00
2021,11,10,03,06,0.00
2021,11,10,03,07,0.00
2021,11,10,03,08,0.00
2021,11,10,03,09,0.00
2021,11,10,03,10,0.00
2021,11,10,03,11,0.00
2021,11,10,03,12,0.10
2021,11,10,03,13,1.50
2021,11,10,03,14,1.20
2021,11,10,03,15,0.00
2021,11,10,03,16,0.00
2021,11,10,03,17,0.00
2021,11,10,03,18,0.00
2021,11,10,03,19,0.00
2021,11,10,03,20,0.00
2021,11,10,03,21,1.00
2021,11,10,03,22,0.40
2021,11,10,03,23,2.10
2021,11,10,03,24,1.40
2021,11,10,03,25,2.80
2021,11,10,03,26,1.50
2021,11,10,03,27,0.20
2021,11,10,03,28,1.70
2021,11,10,03,29,2.20
2021,11,10,03,30,1.80
2021,11,10,03,31,1.70
2021,11,10,03,32,2.70
2021,11,10,03,33,3.70
2021,11,10,03,34,3.60
2021,11,10,03,35,4.40
2021,11,10,03,36,5.10
2021,11,10,03,37,3.50
2021,11,10,03,38,3.60
2021,11,10,03,39,4.50
2021,11,10,03,40,2.60
2021,11,10,03,41,1.80
2021,11,10,03,42,1.40
2021,11,10,03,43,1.90
2021,11,10,03,44,1.30
2021,11,10,03,45,2.70
2021,11,10,03,46,0.90
2021,11,10,03,47,0.80
2021,11,10,03,48,1.20
2021,11,10,03,49,1.90
2021,11,10,03,50,2.80
2021,11,10,03,51,0.20
2021,11,10,03,52,0.10
2021,11,10,03,53,0.20
2021,11,10,03,54,0.40
2021,11,10,03,55,0.90
2021,11,10,03,56,3.00
2021,11,10,03,57,2.10
2021,11,10,03,58,3.00
2021,11,10,03,59,2.30
2021,11,10,04,00,2.70
2021,11,10,04,01,1.20
2021,11,10,04,02,1.80
2021,11,10,04,03,2.80
2021,11,10,04,04,2.40
2021,11,10,04,08,2.60
2021,11,10,04,09,3.10
2021,11,10,04,10,4.10
2021,11,10,04,11,4.90
2021,11,10,04,12,4.60
2021,11,10,04,13,4.10
2021,11,10,04,14,4.80
2021,11,10,04,15,2.80
2021,11,10,04,16,2.50
2021,11,10,04,17,3.20
2021,11,10,04,18,3.40
2021,11,10,04,19,1.80
2021,11,10,04,20,5.40
2021,11,10,04,21,3.30
2021,11,10,04,22,5.70
2021,11,10,04,23,4.40
2021,11,10,04,24,2.60
2021,11,10,04,25,3.20
2021,11,10,04,26,1.80
2021,11,10,04,27,4.50
2021,11,10,04,28,4.90
2021,11,10,04,29,3.40
2021,11,10,04,30,2.60
2021,11,10,04,31,2.60
2021,11,10,04,32,3.70
2021,11,10,04,33,3.50
2021,11,10,04,34,3.10
2021,11,10,04,35,4.50
2021,11,10,04,36,2.90
2021,11,10,04,37,1.20
2021,11,10,04,38,1.80
2021,11,10,04,39,3.30
2021,11,10,04,40,1.70
2021,11,10,04,41,1.90
2021,11,10,04,42,2.60
2021,11,10,04,43,3.00
2021,11,10,04,44,2.10
2021,11,10,04,45,0.70
2021,11,10,04,46,0.10
2021,11,10,04,47,0.10
2021,11,10,04,48,0.00
2021,11,10,04,49,0.00
2021,11,10,04,50,0.00
2021,11,10,04,51,0.00
2021,11,10,04,52,0.00
2021,11,10,04,53,0.00
2021,11,10,04,54,0.00
2021,11,10,04,55,0.00
2021,11,10,04,56,0.00
2021,11,10,04,57,0.00
2021,11,10,04,58,0.00
2021,11,10,04,59,0.10
2021,11,10,05,00,0.30
2021,11,10,05,01,0.90
2021,11,10,05,02,1.80
2021,11,10,05,03,0.70
2021,11,10,05,04,0.50
2021,11,10,05,05,0.00
2021,11,10,05,06,0.00
2021,11,10,05,07,0.00
2021,11,10,05,08,0.00
2021,11,10,05,09,1.80
2021,11,10,05,10,3.60
2021,11,10,05,11,2.20
2021,11,10,05,12,2.20
2021,11,10,05,13,0.30
2021,11,10,05,14,0.00
2021,11,10,05,15,0.00
2021,11,10,05,16,0.00
2021,11,10,05,17,0.00
2021,11,10,05,18,0.00
2021,11,10,05,19,0.00
2021,11,10,05,20,0.00
2021,11,10,05,21,0.00
2021,11,10,05,22,0.00
2021,11,10,05,23,0.00
2021,11,10,05,24,0.00
2021,11,10,05,25,0.00
2021,11,10,05,26,0.00
2021,11,10,05,27,1.30
2021,11,10,05,28,1.10
2021,11,10,05,29,2.50
2021,11,10,05,30,2.20
2021,11,10,05,31,2.10
2021,11,10,05,32,1.10
2021,11,10,05,33,0.00
2021,11,10,05,34,0.00
2021,11,10,05,35,0.00
2021,11,10,05,36,0.00
2021,11,10,05,37,0.00
2021,11,10,05,38,0.00
2021,11,10,05,39,0.00
2021,11,10,05,40,0.00
2021,11,10,05,41,0.00
2021,11,10,05,42,0.00
2021,11,10,05,43,0.00
2021,11,10,05,44,0.00
2021,11,10,05,45,0.00
2021,11,10,05,46,0.00
2021,11,10,05,47,0.00
2021,11,10,05,48,0.00
2021,11,10,05,49,0.00
2021,11,10,05,50,2.60
2021,11,10,05,51,3.10
2021,11,10,05,52,4.10
2021,11,10,05,53,3.90
2021,11,10,05,54,3.80
2021,11,10,05,55,3.50
2021,11,10,05,56,2.20
2021,11,10,05,57,1.00
2021,11,10,05,58,1.40
2021,11,10,05,59,4.60
2021,11,10,06,00,5.40
2021,11,10,06,01,5.30
2021,11,10,06,02,5.30
2021,11,10,06,03,3.20
2021,11,10,06,04,3.10
2021,11,10,06,05,2.70
2021,11,10,06,06,3.60
2021,11,10,06,07,3.00
2021,11,10,06,08,1.70
2021,11,10,06,09,2.80
2021,11,10,06,10,2.10
2021,11,10,06,11,0.70
2021,11,10,06,12,2.10
2021,11,10,06,13,4.70
2021,11,10,06,14,4.20
2021,11,10,06,15,4.50
2021,11,10,06,16,2.20
2021,11,10,06,17,1.80
2021,11,10,06,18,1.00
2021,11,10,06,19,1.40
2021,11,10,06,20,2.20
2021,11,10,06,21,3.40
2021,11,10,06,22,4.00
2021,11,10,06,23,3.60
2021,11,10,06,24,0.50
2021,11,10,06,25,1.80
2021,11,10,06,26,1.40
2021,11,10,06,27,0.20
2021,11,10,06,28,0.00
2021,11,10,06,29,0.00
2021,11,10,06,30,0.10
2021,11,10,06,31,0.00
2021,11,10,06,32,0.20
2021,11,10,06,33,0.00
2021,11,10,06,34,0.10
2021,11,10,06,35,0.00
2021,11,10,06,36,0.00
2021,11,10,06,37,0.00
2021,11,10,06,38,0.40
2021,11,10,06,39,0.30
2021,11,10,06,40,0.00
2021,11,10,06,41,0.10
2021,11,10,06,42,0.20
2021,11,10,06,43,0.80
2021,11,10,06,44,0.10
2021,11,10,06,45,1.20
2021,11,10,06,46,1.60
2021,11,10,06,47,1.00
2021,11,10,06,48,1.20
2021,11,10,06,49,1.50
2021,11,10,06,50,0.00
2021,11,10,06,51,0.00
2021,11,10,06,52,0.30
2021,11,10,06,53,1.20
2021,11,10,06,54,0.60
2021,11,10,06,55,0.10
2021,11,10,06,56,0.00
2021,11,10,06,57,0.00
2021,11,10,06,58,0.00
2021,11,10,06,59,0.10
2021,11,10,07,00,0.00
2021,11,10,07,01,0.10
2021,11,10,07,02,0.00
2021,11,10,07,03,0.00
2021,11,10,07,04,0.00
2021,11,10,07,05,0.00
2021,11,10,07,06,0.00
2021,11,10,07,07,0.00
2021,11,10,07,08,0.00
2021,11,10,07,09,0.00
2021,11,10,07,10,0.00
2021,11,10,07,11,0.00
2021,11,10,07,12,0.00
2021,11,10,07,13,0.00
2021,11,10,07,14,0.00
2021,11,10,07,15,0.00
2021,11,10,07,16,0.20
2021,11,10,07,17,0.40
2021,11,10,07,18,0.00
2021,11,10,07,19,0.10
2021,11,10,07,20,0.60
2021,11,10,07,21,0.40
2021,11,10,07,22,0.10
2021,11,10,07,23,0.00
2021,11,10,07,24,0.00
2021,11,10,07,25,0.20
2021,11,10,07,26,0.30
2021,11,10,07,27,0.00
2021,11,10,07,28,0.00
2021,11,10,07,29,0.00
2021,11,10,07,30,0.00
2021,11,10,07,31,0.00
2021,11,10,07,32,0.00
2021,11,10,07,33,0.00
2021,11,10,07,34,0.00
2021,11,10,07,35,0.00
2021,11,10,07,36,0.00
2021,11,10,07,37,0.00
2021,11,10,07,38,0.00
2021,11,10,07,39,0.00
2021,11,10,07,40,0.00
2021,11,10,07,41,0.00
2021,11,10,07,42,0.00
2021,11,10,07,43,0.00
2021,11,10,07,44,0.00
2021,11,10,07,45,0.00
2021,11,10,07,46,0.00
2021,11,10,07,47,0.00
2021,11,10,07,48,0.00
2021,11,10,07,49,0.00
2021,11,10,07,50,0.00
2021,11,10,07,51,0.00
2021,11,10,07,52,0.00
2021,11,10,07,53,0.00
2021,11,10,07,54,0.00
2021,11,10,07,55,0.00
2021,11,10,07,56,0.00
2021,11,10,07,57,0.00
2021,11,10,07,58,0.10
2021,11,10,07,59,0.30
2021,11,10,08,00,0.20
2021,11,10,08,01,0.10
2021,11,10,08,02,0.00
2021,11,10,08,03,0.30
2021,11,10,08,04,0.80
2021,11,10,08,05,0.50
2021,11,10,08,06,0.20
2021,11,10,08,07,0.20
2021,11,10,08,08,0.20
2021,11,10,08,09,0.20
2021,11,10,08,10,0.00
2021,11,10,08,11,0.10
2021,11,10,08,12,0.00
2021,11,10,08,13,0.00
2021,11,10,08,14,1.10
2021,11,10,08,15,0.10
2021,11,10,08,16,0.20
2021,11,10,08,17,0.10
2021,11,10,08,18,0.00
2021,11,10,08,19,0.00
2021,11,10,08,20,0.00
2021,11,10,08,21,0.00
2021,11,10,08,22,0.00
2021,11,10,08,23,0.00
2021,11,10,08,24,0.00
2021,11,10,08,25,0.00
2021,11,10,08,26,0.30
2021,11,10,08,27,0.00
2021,11,10,08,28,0.00
2021,11,10,08,29,0.00
2021,11,10,08,30,0.20
2021,11,10,08,31,0.00
2021,11,10,08,32,0.00
2021,11,10,08,33,0.00
2021,11,10,08,34,0.00
2021,11,10,08,35,0.00
2021,11,10,08,36,0.00
2021,11,10,08,37,0.00
2021,11,10,08,38,0.00
2021,11,10,08,39,0.00
2021,11,10,08,40,0.00
2021,11,10,08,41,0.00
2021,11,10,08,42,0.00
2021,11,10,08,43,0.00
2021,11,10,08,44,0.00
2021,11,10,08,45,0.00
2021,11,10,08,46,0.00
2021,11,10,08,47,0.00
2021,11,10,08,48,0.00
2021,11,10,08,49,0.00
2021,11,10,08,50,0.00
2021,11,10,08,51,0.00
2021,11,10,08,52,0.00
2021,11,10,08,53,0.00
2021,11,10,08,54,0.00
2021,11,10,08,55,0.00
2021,11,10,08,56,0.00
2021,11,10,08,57,2.10
2021,11,10,08,58,0.70
2021,11,10,08,59,0.10
2021,11,10,09,00,0.30
2021,11,10,09,01,0.10
2021,11,10,09,02,0.60
2021,11,10,09,03,0.20
2021,11,10,09,04,0.00
2021,11,10,09,05,0.70
2021,11,10,09,06,3.80
2021,11,10,09,07,5.70
2021,11,10,09,08,2.80
2021,11,10,09,09,1.60
2021,11,10,09,10,5.60
2021,11,10,09,11,3.40
2021,11,10,09,12,4.10
2021,11,10,09,13,4.60
2021,11,10,09,14,4.50
2021,11,10,09,15,2.50
2021,11,10,09,16,2.10
2021,11,10,09,17,1.50
2021,11,10,09,18,0.10
2021,11,10,09,19,2.60
2021,11,10,09,20,3.90
2021,11,10,09,21,1.60
2021,11,10,09,22,0.80
2021,11,10,09,23,1.80
2021,11,10,09,24,0.00
2021,11,10,09,25,0.30
2021,11,10,09,26,0.30
2021,11,10,09,27,0.10
2021,11,10,09,28,0.10
2021,11,10,09,29,0.00
2021,11,10,09,30,0.00
2021,11,10,09,31,0.00
2021,11,10,09,32,0.00
2021,11,10,09,33,0.00
2021,11,10,09,34,0.00
2021,11,10,09,35,0.40
2021,11,10,09,36,0.00
2021,11,10,09,37,0.00
2021,11,10,09,38,0.20
2021,11,10,09,39,0.60
2021,11,10,09,40,0.00
2021,11,10,09,41,0.00
2021,11,10,09,42,0.00
2021,11,10,09,43,0.20
2021,11,10,09,44,1.20
2021,11,10,09,45,0.70
2021,11,10,09,46,0.30
2021,11,10,09,47,2.00
2021,11,10,09,48,1.80
2021,11,10,09,49,0.00
2021,11,10,09,50,0.10
2021,11,10,09,51,0.10
2021,11,10,09,52,0.00
2021,11,10,09,53,0.30
2021,11,10,09,54,0.50
2021,11,10,09,55,0.00
2021,11,10,09,56,0.00
2021,11,10,09,57,0.00
2021,11,10,09,58,0.10
2021,11,10,09,59,0.00
2021,11,10,10,00,0.00
2021,11,10,10,01,0.00
2021,11,10,10,02,0.00
2021,11,10,10,03,0.00
2021,11,10,10,04,0.00
2021,11,10,10,05,0.10
2021,11,10,10,06,0.00
2021,11,10,10,07,0.10
2021,11,10,10,08,0.00
2021,11,10,10,09,0.00
2021,11,10,10,10,0.00
2021,11,10,10,11,0.80
2021,11,10,10,12,0.00
2021,11,10,10,13,0.00
2021,11,10,10,14,0.30
2021,11,10,10,15,0.00
2021,11,10,10,16,0.00
2021,11,10,10,17,0.00
2021,11,10,10,18,1.00
2021,11,10,10,19,1.10
2021,11,10,10,20,1.10
2021,11,10,10,21,3.00
2021,11,10,10,22,0.30
2021,11,10,10,23,0.10
2021,11,10,10,24,2.00
2021,11,10,10,25,2.20
2021,11,10,10,26,8.80
2021,11,10,10,27,10.30
2021,11,10,10,28,6.20
2021,11,10,10,29,4.10
2021,11,10,10,30,3.70
2021,11,10,10,31,3.50
2021,11,10,10,32,3.40
2021,11,10,10,33,4.90
2021,11,10,10,34,4.40
2021,11,10,10,35,4.70
2021,11,10,10,36,4.40
2021,11,10,10,37,4.00
2021,11,10,10,38,3.10
2021,11,10,10,39,0.50
2021,11,10,10,40,2.60
2021,11,10,10,41,2.80
2021,11,10,10,42,5.10
2021,11,10,10,43,7.50
2021,11,10,10,44,8.20
2021,11,10,10,45,3.90
2021,11,10,10,46,6.70
2021,11,10,10,47,5.70
2021,11,10,10,48,4.90
2021,11,10,10,49,3.80
2021,11,10,10,50,3.50
2021,11,10,10,51,3.40
2021,11,10,10,52,3.50
2021,11,10,10,53,1.80
2021,11,10,10,54,1.20
2021,11,10,10,55,4.20
2021,11,10,10,56,1.80
2021,11,10,10,57,0.80
2021,11,10,10,58,1.20
2021,11,10,10,59,0.10
2021,11,10,11,00,4.10
2021,11,10,11,01,5.60
2021,11,10,11,02,6.40
2021,11,10,11,03,4.20
2021,11,10,11,04,1.00
2021,11,10,11,05,0.10
2021,11,10,11,06,1.50
2021,11,10,11,07,3.40
2021,11,10,11,08,2.70
2021,11,10,11,09,3.20
2021,11,10,11,10,2.40
2021,11,10,11,11,2.90
2021,11,10,11,12,2.20
2021,11,10,11,13,0.10
2021,11,10,11,14,5.20
2021,11,10,11,15,3.70
2021,11,10,11,16,4.50
2021,11,10,11,17,3.10
2021,11,10,11,18,3.50
2021,11,10,11,19,3.60
2021,11,10,11,20,0.70
2021,11,10,11,21,0.50
2021,11,10,11,22,0.20
2021,11,10,11,23,0.50
2021,11,10,11,24,4.30
2021,11,10,11,25,5.90
2021,11,10,11,26,2.10
2021,11,10,11,27,2.10
2021,11,10,11,28,6.10
2021,11,10,11,29,5.60
2021,11,10,11,30,4.30
2021,11,10,11,31,0.90
2021,11,10,11,32,2.80
2021,11,10,11,33,6.70
2021,11,10,11,34,2.80
2021,11,10,11,35,3.90
2021,11,10,11,36,2.20
2021,11,10,11,37,2.70
2021,11,10,11,38,4.50
2021,11,10,11,39,5.40
2021,11,10,11,40,5.30
2021,11,10,11,41,2.60
2021,11,10,11,42,3.80
2021,11,10,11,43,4.70
2021,11,10,11,44,2.90
2021,11,10,11,45,4.00
2021,11,10,11,46,0.50
2021,11,10,11,47,0.30
2021,11,10,11,48,1.30
2021,11,10,11,49,1.50
2021,11,10,11,50,3.90
2021,11,10,11,51,3.00
2021,11,10,11,52,4.10
2021,11,10,11,53,2.30
2021,11,10,11,54,1.00
2021,11,10,11,55,1.10
2021,11,10,11,56,5.40
2021,11,10,11,57,4.40
2021,11,10,11,58,0.80
2021,11,10,11,59,0.80
2021,11,10,12,00,1.70
2021,11,10,12,01,3.00
2021,11,10,12,02,0.20
2021,11,10,12,03,5.00
2021,11,10,12,04,3.90
2021,11,10,12,05,2.80
2021,11,10,12,06,3.70
2021,11,10,12,07,2.90
2021,11,10,12,08,2.10
2021,11,10,12,09,1.20
2021,11,10,12,10,0.80
2021,11,10,12,11,3.60
2021,11,10,12,12,2.90
2021,11,10,12,13,0.10
2021,11,10,12,14,2.70
2021,11,10,12,15,6.10
2021,11,10,12,16,6.00
2021,11,10,12,17,2.70
2021,11,10,12,18,3.30
2021,11,10,12,19,2.20
2021,11,10,12,20,3.70
2021,11,10,12,21,1.40
2021,11,10,12,22,1.10
2021,11,10,12,23,2.50
2021,11,10,12,24,1.80
2021,11,10,12,25,2.90
2021,11,10,12,26,5.00
2021,11,10,12,27,5.30
2021,11,10,12,28,3.40
2021,11,10,12,29,3.70
2021,11,10,12,30,1.60
2021,11,10,12,31,4.20
2021,11,10,12,32,5.10
2021,11,10,12,33,4.90
2021,11,10,12,34,5.30
2021,11,10,12,35,5.50
2021,11,10,12,36,0.70
2021,11,10,12,37,2.80
2021,11,10,12,38,0.60
2021,11,10,12,39,2.90
2021,11,10,12,40,4.20
2021,11,10,12,41,3.20
2021,11,10,12,42,1.50
2021,11,10,12,43,1.20
2021,11,10,12,44,0.30
2021,11,10,12,45,0.00
2021,11,10,12,46,1.50
2021,11,10,12,47,7.20
2021,11,10,12,48,7.00
2021,11,10,12,49,8.10
2021,11,10,12,50,2.80
2021,11,10,12,51,2.80
2021,11,10,12,52,6.20
2021,11,10,12,53,2.20
2021,11,10,12,54,4.50
2021,11,10,12,55,2.80
2021,11,10,12,56,1.20
2021,11,10,12,57,1.90
2021,11,10,12,58,1.50
2021,11,10,12,59,0.70
2021,11,10,13,00,1.50
2021,11,10,13,01,2.30
2021,11,10,13,02,0.10
2021,11,10,13,03,1.50
2021,11,10,13,04,2.80
2021,11,10,13,05,1.20
2021,11,10,13,06,3.30
2021,11,10,13,07,3.00
2021,11,10,13,08,0.10
2021,11,10,13,09,1.80
2021,11,10,13,10,2.70
2021,11,10,13,11,1.60
2021,11,10,13,12,2.40
2021,11,10,13,13,1.90
2021,11,10,13,14,0.80
2021,11,10,13,15,0.70
2021,11,10,13,16,2.80
2021,11,10,13,17,1.80
2021,11,10,13,18,0.40
2021,11,10,13,19,3.40
2021,11,10,13,20,3.30
2021,11,10,13,21,1.10
2021,11,10,13,22,0.40
2021,11,10,13,23,1.10
2021,11,10,13,24,0.90
2021,11,10,13,25,1.50
2021,11,10,13,26,2.00
2021,11,10,13,27,1.30
2021,11,10,13,28,0.00
2021,11,10,13,29,0.50
2021,11,10,13,30,1.30
2021,11,10,13,31,1.00
2021,11,10,13,32,4.00
2021,11,10,13,33,5.30
2021,11,10,13,34,2.00
2021,11,10,13,35,1.00
2021,11,10,13,36,0.60
2021,11,10,13,37,0.20
2021,11,10,13,38,1.40
2021,11,10,13,39,2.90
2021,11,10,13,40,1.00
2021,11,10,13,41,1.50
2021,11,10,13,42,1.00
2021,11,10,13,43,2.70
2021,11,10,13,44,2.80
2021,11,10,13,45,0.60
2021,11,10,13,46,1.30
2021,11,10,13,47,0.50
2021,11,10,13,48,1.50
2021,11,10,13,49,2.20
2021,11,10,13,50,1.10
2021,11,10,13,51,0.60
2021,11,10,13,52,0.10
2021,11,10,13,53,0.80
2021,11,10,13,54,0.90
2021,11,10,13,55,0.70
2021,11,10,13,56,0.10
2021,11,10,13,57,0.20
2021,11,10,13,58,1.60
2021,11,10,13,59,1.80
2021,11,10,14,00,4.80
2021,11,10,14,01,5.10
2021,11,10,14,02,0.70
2021,11,10,14,03,0.50
2021,11,10,14,04,0.70
2021,11,10,14,05,1.80
2021,11,10,14,06,4.80
2021,11,10,14,07,4.40
2021,11,10,14,08,0.70
2021,11,10,14,09,1.40
2021,11,10,14,10,5.10
2021,11,10,14,11,1.80
2021,11,10,14,12,0.00
2021,11,10,14,13,0.00
2021,11,10,14,14,0.00
2021,11,10,14,15,0.30
2021,11,10,14,16,2.90
2021,11,10,14,17,1.20
2021,11,10,14,18,1.20
2021,11,10,14,19,1.20
2021,11,10,14,20,6.90
2021,11,10,14,21,2.80
2021,11,10,14,22,0.50
2021,11,10,14,23,1.00
2021,11,10,14,24,1.20
2021,11,10,14,25,0.10
2021,11,10,14,26,1.10
2021,11,10,14,27,0.10
2021,11,10,14,28,0.20
2021,11,10,14,29,3.30
2021,11,10,14,30,3.50
2021,11,10,14,31,2.40
2021,11,10,14,32,1.60
2021,11,10,14,33,1.50
2021,11,10,14,34,1.60
2021,11,10,14,35,3.50
2021,11,10,14,36,0.30
2021,11,10,14,37,1.50
2021,11,10,14,38,4.40
2021,11,10,14,39,1.60
2021,11,10,14,40,1.20
2021,11,10,14,41,3.10
2021,11,10,14,42,4.70
2021,11,10,14,43,1.30
2021,11,10,14,44,0.20
2021,11,10,14,45,0.30
2021,11,10,14,46,0.20
2021,11,10,14,47,0.00
2021,11,10,14,48,4.80
2021,11,10,14,49,1.00
2021,11,10,14,50,1.90
2021,11,10,14,51,2.70
2021,11,10,14,52,1.00
2021,11,10,14,53,0.30
2021,11,10,14,54,1.80
2021,11,10,14,55,0.70
2021,11,10,14,56,2.70
2021,11,10,14,57,2.90
2021,11,10,14,58,1.50
2021,11,10,14,59,0.20
2021,11,10,15,00,0.90
2021,11,10,15,01,1.00
2021,11,10,15,02,3.10
2021,11,10,15,03,0.40
2021,11,10,15,04,1.00
2021,11,10,15,05,1.30
2021,11,10,15,06,3.80
2021,11,10,15,07,3.90
2021,11,10,15,08,2.70
2021,11,10,15,09,1.10
2021,11,10,15,10,0.10
2021,11,10,15,11,0.90
2021,11,10,15,12,0.00
2021,11,10,15,13,1.40
2021,11,10,15,14,2.10
2021,11,10,15,15,1.50
2021,11,10,15,16,0.50
2021,11,10,15,17,0.00
2021,11,10,15,18,1.40
2021,11,10,15,19,1.00
2021,11,10,15,20,1.20
2021,11,10,15,21,0.50
2021,11,10,15,22,0.20
2021,11,10,15,23,0.30
2021,11,10,15,24,0.20
2021,11,10,15,25,0.30
2021,11,10,15,26,0.00
2021,11,10,15,27,0.20
2021,11,10,15,28,0.40
2021,11,10,15,29,0.30
2021,11,10,15,30,4.20
2021,11,10,15,31,1.50
2021,11,10,15,32,0.60
2021,11,10,15,33,0.20
2021,11,10,15,34,0.60
2021,11,10,15,35,0.20
2021,11,10,15,36,1.20
2021,11,10,15,37,0.10
2021,11,10,15,38,0.20
2021,11,10,15,39,1.00
2021,11,10,15,40,0.10
2021,11,10,15,41,0.10
2021,11,10,15,42,1.10
2021,11,10,15,43,2.70
2021,11,10,15,44,1.70
2021,11,10,15,45,0.20
2021,11,10,15,46,0.00
2021,11,10,15,47,0.40
2021,11,10,15,48,0.10
2021,11,10,15,49,0.00
2021,11,10,15,50,0.00
2021,11,10,15,51,0.10
2021,11,10,15,52,0.70
2021,11,10,15,53,0.50
2021,11,10,15,54,0.10
2021,11,10,15,55,0.00
2021,11,10,15,56,0.00
2021,11,10,15,57,0.00
2021,11,10,15,58,0.00
2021,11,10,15,59,0.30
2021,11,10,16,00,0.00
2021,11,10,16,01,0.10
2021,11,10,16,02,0.00
2021,11,10,16,03,0.10
2021,11,10,16,04,0.00
2021,11,10,16,05,0.00
2021,11,10,16,06,0.00
2021,11,10,16,07,0.00
2021,11,10,16,08,0.00
2021,11,10,16,09,0.00
2021,11,10,16,10,0.20
2021,11,10,16,11,0.00
2021,11,10,16,12,0.00
2021,11,10,16,13,0.30
2021,11,10,16,14,0.00
2021,11,10,16,15,0.00
2021,11,10,16,16,0.00
2021,11,10,16,17,0.00
2021,11,10,16,18,0.00
2021,11,10,16,19,0.00
2021,11,10,16,20,0.00
2021,11,10,16,21,0.00
2021,11,10,16,22,0.00
2021,11,10,16,23,0.00
2021,11,10,16,24,0.00
2021,11,10,16,25,0.10
2021,11,10,16,26,0.00
2021,11,10,16,27,0.00
2021,11,10,16,28,0.00
2021,11,10,16,29,0.00
2021,11,10,16,30,0.00
2021,11,10,16,31,0.00
2021,11,10,16,32,0.00
2021,11,10,16,33,0.00
2021,11,10,16,34,0.00
2021,11,10,16,35,0.00
2021,11,10,16,36,0.00
2021,11,10,16,37,0.00
2021,11,10,16,38,0.00
2021,11,10,16,39,0.00
2021,11,10,16,40,0.00
2021,11,10,16,41,0.10
2021,11,10,16,42,0.00
2021,11,10,16,43,0.00
2021,11,10,16,44,0.10
2021,11,10,16,45,0.10
2021,11,10,16,46,2.30
2021,11,10,16,47,0.10
2021,11,10,16,48,0.10
2021,11,10,16,49,0.70
2021,11,10,16,50,0.10
2021,11,10,16,51,0.80
2021,11,10,16,52,1.30
2021,11,10,16,53,1.80
2021,11,10,16,54,3.00
2021,11,10,16,55,2.20
2021,11,10,16,56,1.00
2021,11,10,16,57,0.20
2021,11,10,16,58,0.10
2021,11,10,16,59,1.80
2021,11,10,17,00,0.40
2021,11,10,17,01,3.80
2021,11,10,17,02,4.10
2021,11,10,17,03,3.60
2021,11,10,17,04,3.40
2021,11,10,17,05,3.80
2021,11,10,17,06,4.50
2021,11,10,17,07,4.20
2021,11,10,17,08,4.70
2021,11,10,17,09,3.30
2021,11,10,17,10,3.40
2021,11,10,17,11,3.10
2021,11,10,17,12,3.00
2021,11,10,17,13,2.80
2021,11,10,17,14,2.90
2021,11,10,17,15,2.10
2021,11,10,17,16,4.40
2021,11,10,17,17,3.10
2021,11,10,17,18,1.50
2021,11,10,17,19,2.60
2021,11,10,17,20,2.50
2021,11,10,17,21,2.60
2021,11,10,17,22,1.90
2021,11,10,17,23,0.20
2021,11,10,17,24,1.30
2021,11,10,17,25,1.00
2021,11,10,17,26,0.60
2021,11,10,17,27,0.50
2021,11,10,17,28,0.00
2021,11,10,17,29,0.10
2021,11,10,17,30,0.00
2021,11,10,17,31,0.00
2021,11,10,17,32,0.10
2021,11,10,17,33,0.00
2021,11,10,17,34,0.00
2021,11,10,17,35,0.20
2021,11,10,17,36,0.00
2021,11,10,17,37,0.00
2021,11,10,17,38,0.20
2021,11,10,17,39,0.30
2021,11,10,17,40,0.20
2021,11,10,17,41,0.50
2021,11,10,17,42,0.10
2021,11,10,17,43,0.50
2021,11,10,17,44,1.20
2021,11,10,17,45,2.60
2021,11,10,17,46,2.90
2021,11,10,17,47,2.10
2021,11,10,17,48,1.80
2021,11,10,17,49,1.80
2021,11,10,17,50,2.30
2021,11,10,17,51,0.80
2021,11,10,17,52,0.60
2021,11,10,17,53,0.00
2021,11,10,17,54,0.00
2021,11,10,17,55,0.10
2021,11,10,17,56,0.10
2021,11,10,17,57,0.60
2021,11,10,17,58,0.80
2021,11,10,17,59,0.50
2021,11,10,18,00,1.10
2021,11,10,18,01,0.40
2021,11,10,18,02,0.20
2021,11,10,18,03,0.80
2021,11,10,18,04,1.60
2021,11,10,18,05,2.70
2021,11,10,18,06,2.00
2021,11,10,18,07,1.50
2021,11,10,18,08,0.00
2021,11,10,18,09,0.10